Theta_e
310 313 314 314 315 315 315 313 313 314 313 312 312 313 313 312 312 312 312 312 309 309 311 311 311 311 311 311 311 312 311 312 312 312 312 312 312 312 312 313 314 313 313 314 314 313 312 311 309 309 309 308 308 308 307 306 306 306 306 306 307 306 306 306 307 309 310 312 312 312 312 312 312 312 312 312 312 312 312 312 312 312 311 309 305 302
309 314 315 315 315 314 312 312 312 312 311 311 312 312 313 313 313 312 312 312 309 309 311 310 311 311 311 311 311 311 311 311 312 312 312 312 312 313 313 314 314 313 313 314 314 313 312 310 309 308 308 308 308 308 308 306 306 306 306 306 306 306 306 305 306 307 308 310 311 311 311 311 311 310 310 310 310 310 310 311 311 311 310 309 306 303
311 314 314 314 314 312 309 309 309 310 311 311 312 313 313 313 313 313 312 311 308 308 311 311 311 311 311 311 311 312 312 312 312 312 312 312 313 313 314 313 313 312 313 314 313 312 311 310 310 309 309 308 308 308 308 307 306 306 306 306 306 306 305 305 305 305 306 308 309 310 310 310 309 308 308 308 308 308 308 308 308 308 308 307 306 304
315 314 313 313 312 310 310 309 308 309 310 311 312 313 313 313 314 313 312 310 308 308 310 311 310 312 312 312 312 312 312 312 312 312 312 313 313 313 313 312 312 312 313 314 312 311 311 311 311 311 310 309 308 307 307 307 306 305 305 305 305 305 305 305 304 304 305 306 306 307 308 308 307 307 306 306 306 306 306 305 305 305 305 305 304 303
316 313 310 311 310 310 311 310 309 310 312 313 313 313 313 314 314 313 313 311 310 311 310 310 312 314 314 315 314 313 310 310 312 312 312 313 313 313 313 313 313 312 312 312 311 311 311 312 313 312 310 308 308 308 307 306 306 305 305 305 304 305 305 304 304 304 304 304 305 305 306 306 305 305 305 304 304 304 303 303 303 303 303 303 302 301
315 311 309 310 310 309 311 311 311 312 313 315 315 313 312 313 313 313 314 312 312 313 312 311 314 315 314 314 315 314 312 312 314 315 314 314 313 313 313 314 314 313 312 311 310 310 311 313 313 311 309 308 308 308 306 304 304 305 304 304 304 304 305 304 304 303 303 303 304 304 305 305 304 304 304 304 304 303 302 302 302 301 301 301 300 300
312 308 308 312 311 311 311 311 312 313 313 314 316 315 312 312 313 313 313 313 313 314 312 311 313 315 314 314 315 315 314 314 315 316 315 314 314 313 313 313 313 312 311 311 310 310 311 312 311 309 308 307 306 305 304 303 303 304 304 304 303 304 304 304 303 303 302 303 303 303 304 304 304 304 304 303 303 302 302 301 301 301 301 300 300 299
310 309 309 311 312 312 312 312 313 312 312 314 315 315 314 313 314 314 313 312 313 313 312 311 313 314 315 314 314 314 314 314 315 316 316 315 314 313 313 313 312 310 310 311 311 310 309 309 308 307 307 306 304 303 302 302 302 303 303 303 303 303 303 303 302 302 302 302 303 303 303 303 303 304 304 303 302 301 301 300 300 300 299 299 299 299
310 312 312 311 311 312 312 313 315 312 312 314 312 311 312 312 312 312 312 312 311 312 314 313 313 315 316 314 312 313 314 315 315 315 315 314 314 313 313 313 311 309 309 310 311 309 308 308 307 306 306 305 304 303 301 301 301 301 302 302 302 302 302 302 302 301 301 302 302 303 303 303 303 303 303 303 301 300 300 299 299 299 298 298 297 297
310 309 310 311 312 313 313 312 313 313 313 312 310 310 311 311 311 310 311 312 312 313 315 314 313 315 317 315 313 313 314 315 316 314 314 314 313 313 314 312 309 308 309 310 309 308 308 307 306 306 305 305 304 303 302 301 300 300 301 301 301 301 301 301 301 301 301 301 301 302 302 303 303 303 302 302 301 301 300 299 299 298 297 297 297 296
309 305 306 311 312 312 312 310 308 312 313 311 311 312 313 312 310 310 311 311 312 315 317 314 314 315 316 317 315 314 313 314 315 314 313 314 314 314 314 310 308 308 308 308 307 306 306 306 305 305 304 304 303 302 302 301 300 299 300 300 300 300 300 300 300 300 300 300 301 301 302 302 302 302 302 302 301 301 300 299 298 298 297 296 296 296
309 307 308 311 311 310 311 310 307 308 309 310 311 311 313 313 311 311 311 311 314 318 316 314 314 315 316 317 314 314 313 311 312 312 313 314 313 314 313 309 307 308 307 306 305 304 304 303 303 303 303 302 302 301 300 300 299 299 299 299 300 300 299 299 299 299 299 300 300 300 301 301 301 302 302 302 301 301 300 299 298 298 297 296 296 295
312 311 311 310 309 308 311 312 309 307 307 309 310 311 313 315 314 315 316 314 316 318 313 311 313 314 316 315 313 313 313 312 311 311 312 312 312 312 310 307 307 306 305 304 303 302 301 301 302 302 301 301 300 300 299 299 298 298 298 298 299 299 298 298 298 298 299 299 299 300 300 300 301 301 301 301 301 300 300 299 299 298 297 297 296 295
316 314 310 309 310 308 310 311 312 312 309 309 311 312 314 316 317 319 318 315 317 317 310 308 312 314 314 315 314 313 313 312 310 309 311 312 310 309 307 306 306 304 303 302 301 300 299 299 300 300 300 299 299 299 299 298 298 298 298 297 298 298 297 297 297 297 297 298 299 299 299 300 300 300 300 300 300 300 300 299 298 298 298 297 296 296
317 319 313 312 313 310 310 312 315 315 311 310 311 312 314 316 318 320 319 318 319 317 309 308 312 315 315 314 312 311 311 311 309 309 311 311 308 306 305 304 303 301 300 300 299 298 297 298 298 298 298 298 298 297 297 298 298 298 297 297 297 297 297 297 297 297 297 297 298 298 298 299 299 299 299 300 300 299 299 299 298 298 298 297 297 296
316 320 314 311 310 308 310 313 313 313 312 310 310 310 313 314 315 316 317 317 316 315 312 311 313 314 314 314 311 310 310 309 309 309 309 308 305 304 303 301 300 299 298 298 297 297 296 297 297 296 296 296 296 296 296 296 297 297 297 296 297 296 296 296 296 296 296 296 296 296 297 297 298 298 298 298 299 299 299 298 298 298 297 297 297 296
317 318 313 309 308 307 309 310 310 311 312 310 309 311 312 311 312 313 315 315 313 314 316 314 314 314 313 315 313 311 311 310 309 308 306 304 303 301 300 299 298 297 297 296 296 295 295 296 295 295 295 295 295 295 295 295 295 295 296 296 296 296 296 296 295 295 296 296 296 295 296 296 297 297 297 298 298 298 298 298 297 297 297 297 296 296
317 318 314 312 311 308 305 307 310 312 312 310 311 312 311 310 310 312 314 315 315 316 317 315 316 315 315 316 315 313 314 312 308 305 303 301 300 299 298 297 296 296 296 295 295 295 295 295 294 294 294 294 294 294 294 294 294 294 294 295 295 296 295 295 295 295 295 295 295 295 295 295 296 296 296 297 297 297 297 297 297 297 296 296 296 296
314 316 315 312 311 310 306 308 312 311 309 310 310 310 311 312 313 314 315 316 317 319 318 317 316 316 315 316 316 315 313 310 306 303 301 300 299 298 297 297 296 295 295 295 294 294 294 294 293 293 293 293 293 293 293 293 292 293 293 293 294 294 295 295 295 295 294 294 294 294 294 295 295 295 295 296 296 296 296 296 296 296 296 296 295 295
315 317 317 314 312 313 312 312 315 312 310 309 308 309 312 312 313 315 315 315 318 320 320 319 318 318 317 315 315 314 309 306 304 302 300 299 297 297 296 296 295 295 294 294 294 293 293 293 293 292 292 292 292 293 293 292 292 292 292 292 292 293 293 294 294 295 294 294 294 293 294 294 294 294 295 295 295 295 296 296 296 295 295 295 295 295
320 317 318 318 315 315 316 316 316 315 313 311 310 312 315 313 314 316 316 316 318 319 319 320 320 319 318 316 313 310 305 303 303 302 300 298 297 296 296 295 295 294 294 293 293 292 293 293 292 292 292 292 292 292 292 292 292 292 292 292 292 292 292 292 293 294 294 294 294 293 293 293 293 293 293 294 294 294 295 295 295 295 295 295 294 294
318 316 317 318 317 316 317 316 316 315 316 315 313 315 316 315 316 317 318 318 317 317 318 319 318 318 316 314 309 304 302 302 302 301 300 298 297 296 296 295 294 294 293 293 292 292 292 293 292 292 292 291 291 291 291 291 291 291 291 291 291 291 291 291 292 292 293 293 293 293 293 293 292 292 292 293 293 293 293 294 294 294 294 294 294 294
314 315 316 316 315 316 316 314 314 314 315 315 314 314 315 315 316 317 317 317 316 316 316 317 317 317 314 308 304 302 301 300 299 299 299 297 296 296 295 295 294 294 293 293 292 292 293 292 292 292 292 291 291 291 291 291 291 291 290 290 290 291 291 290 291 291 292 292 292 292 292 293 292 292 291 292 292 292 292 293 293 293 293 293 293 293
312 313 315 316 315 314 314 313 312 312 312 314 314 313 313 314 314 315 314 314 314 315 316 316 318 317 311 305 303 302 300 298 297 297 297 296 295 294 294 294 294 293 293 293 292 292 292 292 291 292 292 291 291 291 291 291 290 290 290 290 290 290 290 289 289 290 290 291 291 291 291 291 292 292 292 291 291 291 291 292 292 292 292 292 292 292
311 312 315 315 315 314 313 312 311 310 311 312 312 312 312 312 313 313 312 312 314 315 315 316 317 317 312 309 308 305 301 299 297 295 296 295 294 293 293 293 293 293 293 293 292 292 292 292 291 291 291 291 291 290 290 290 290 290 290 289 289 289 289 289 289 289 288 289 289 289 289 289 290 291 291 291 291 291 290 291 291 291 291 291 292 292
309 312 314 314 314 313 312 312 311 311 311 311 311 311 311 311 311 311 311 313 314 315 314 314 314 313 311 310 309 308 305 301 297 294 294 294 293 293 293 293 292 292 292 292 292 292 291 291 292 291 291 290 290 290 290 290 289 289 289 289 289 289 289 289 289 289 288 288 288 288 287 288 288 289 289 289 290 291 290 290 290 290 291 291 291 291
307 310 312 312 313 313 312 312 311 311 310 310 311 311 310 310 310 309 310 311 312 312 312 311 311 310 310 308 307 308 306 301 296 294 293 293 293 293 293 293 292 292 292 292 292 292 292 291 292 291 291 290 290 290 289 289 289 289 288 288 288 288 288 288 288 289 289 288 288 288 287 287 287 287 287 287 288 289 290 290 290 290 290 290 290 290
306 308 310 311 311 311 311 311 309 308 308 309 309 308 308 308 308 309 309 308 308 309 309 309 308 309 308 306 307 307 303 298 295 294 293 293 293 293 293 293 292 292 292 292 292 292 292 291 291 291 291 290 290 289 289 289 289 288 288 288 288 287 288 288 288 289 289 288 288 288 287 287 286 286 286 286 286 287 288 289 290 290 290 290 289 289
305 307 308 309 309 308 308 308 307 306 306 306 306 306 306 306 306 307 307 306 306 307 307 306 306 307 306 305 306 302 298 295 294 294 293 293 293 293 293 293 293 292 291 292 292 292 292 291 291 291 291 290 290 290 289 289 289 288 288 288 288 288 288 288 288 288 288 288 288 288 287 286 286 285 286 286 285 286 286 287 288 289 290 290 290 289
304 305 306 305 304 305 304 304 305 304 304 304 304 304 304 304 304 305 305 305 305 305 305 305 305 305 304 303 301 297 294 294 294 293 293 293 293 293 293 293 293 292 291 291 292 292 292 292 291 291 291 291 290 290 289 289 288 288 288 288 288 287 287 287 288 288 288 288 287 287 287 286 285 284 285 285 285 284 285 285 286 287 288 290 290 290
303 303 303 301 301 302 302 302 303 302 302 302 302 302 302 302 302 302 303 303 303 304 304 303 304 303 301 298 296 295 294 293 293 293 293 292 293 293 293 293 293 293 292 291 291 291 292 292 291 292 291 291 290 290 289 289 288 288 288 287 287 287 286 287 287 287 287 288 287 287 287 286 285 284 283 284 284 284 284 284 285 285 286 287 288 290
301 301 300 300 301 301 301 301 301 300 300 300 299 299 299 300 300 300 301 302 302 302 302 301 302 301 299 295 294 295 294 292 292 293 292 292 292 293 293 293 293 293 292 291 291 291 291 291 291 292 291 291 291 290 289 289 288 288 288 287 287 286 286 286 287 287 287 287 287 286 286 286 285 284 283 283 283 283 283 283 284 284 285 286 286 287
299 299 299 300 300 300 300 299 297 297 297 297 297 298 297 297 298 298 299 299 299 299 299 300 299 298 297 295 293 293 294 293 292 292 292 292 292 292 292 292 293 293 292 291 291 291 291 292 292 292 291 291 290 290 289 289 288 288 287 287 286 286 286 286 286 286 286 286 286 286 286 286 285 283 282 282 282 282 283 283 283 283 284 284 285 286
298 298 297 298 298 298 298 296 295 296 297 297 298 298 296 296 297 297 296 297 298 298 298 298 297 295 295 295 292 291 293 293 292 292 292 292 292 292 292 292 292 292 292 292 291 291 291 292 292 292 291 291 290 290 289 289 288 287 287 286 286 286 285 285 285 286 286 286 286 285 285 285 285 284 283 282 281 282 282 282 282 283 283 284 284 285
297 297 297 296 296 296 296 295 295 296 296 295 296 297 296 296 298 297 297 297 298 298 297 296 295 293 293 293 292 291 291 291 292 292 292 292 292 292 292 292 292 292 292 292 291 290 291 292 292 292 292 291 290 290 289 289 288 287 287 286 286 285 285 285 285 285 285 285 285 285 285 285 285 284 283 282 282 282 282 282 282 282 282 283 283 284
296 297 296 295 295 295 295 295 296 296 295 294 295 295 295 295 296 296 297 297 297 297 297 297 295 293 292 292 292 292 292 292 293 293 293 293 293 293 292 292 292 292 292 291 290 290 291 292 292 292 291 291 291 290 289 289 288 287 287 286 286 285 285 284 284 284 284 285 285 284 284 284 284 283 282 282 282 282 282 282 282 281 282 282 282 282
295 296 295 294 295 295 294 295 295 294 295 295 294 294 294 295 295 296 296 296 296 295 295 296 295 293 292 292 291 292 293 292 292 292 293 293 293 293 292 292 292 292 292 291 291 291 291 291 291 291 291 291 291 290 289 288 288 287 286 286 285 285 284 284 284 284 284 284 284 284 283 283 283 282 281 281 281 281 281 282 282 281 281 282 281 282
293 295 295 294 294 294 294 294 295 294 294 294 294 294 294 293 293 295 295 296 296 295 293 293 294 292 291 291 291 292 293 292 291 291 291 292 292 292 292 292 293 293 293 292 291 291 291 291 291 291 291 290 290 290 289 288 287 287 286 286 285 285 284 284 284 283 283 283 283 283 282 282 281 281 280 280 280 280 280 281 281 281 281 281 281 281
293 294 294 294 295 295 295 295 295 295 295 295 295 293 292 292 292 294 294 294 295 295 293 293 294 293 293 292 292 292 292 291 290 291 291 291 291 291 291 291 292 293 292 291 291 291 291 291 290 290 290 290 290 290 289 288 286 286 285 285 285 284 284 284 283 283 283 283 282 282 281 281 280 280 280 279 279 279 279 280 281 281 281 281 281 282
292 293 294 294 294 294 294 295 295 294 294 295 294 293 292 291 292 294 294 293 294 294 292 293 295 295 293 292 292 292 292 291 290 290 291 291 290 290 290 289 290 291 290 290 290 290 290 290 290 290 290 290 289 288 287 286 285 285 284 284 284 284 283 283 283 282 282 282 281 281 280 280 280 279 279 279 279 279 278 279 280 281 281 281 281 282
290 291 292 294 294 294 294 295 294 294 294 294 294 293 292 291 292 294 293 292 292 294 292 290 292 293 291 290 290 290 291 291 290 290 290 291 290 290 290 290 290 290 289 289 289 289 288 288 288 288 288 287 287 285 284 284 283 283 283 283 283 283 283 282 282 281 281 281 280 280 279 279 279 278 278 278 278 278 277 278 278 279 279 279 281 281
288 288 289 291 293 292 293 294 293 293 293 293 293 292 291 291 293 293 292 290 290 292 291 290 290 290 289 290 290 290 290 290 290 290 290 290 290 289 289 290 290 290 289 289 288 286 285 285 285 284 284 284 283 283 282 281 281 281 282 282 282 282 282 281 281 280 280 279 279 279 278 278 278 278 277 277 277 277 276 277 277 277 277 279 280 281
290 290 289 290 291 290 290 292 291 291 291 291 291 291 291 292 293 292 290 290 290 290 290 290 290 289 289 289 289 289 289 289 289 289 289 289 288 288 288 289 289 288 287 286 285 283 282 281 282 282 281 281 281 280 280 279 279 279 280 280 280 280 280 280 279 279 278 278 278 277 277 277 277 277 276 276 276 276 276 276 276 276 277 278 279 280
290 290 290 290 290 290 289 291 291 291 291 290 289 290 291 292 292 291 290 290 290 290 290 290 289 289 289 289 288 288 288 288 288 288 288 288 287 287 287 287 286 284 283 282 282 281 280 279 280 279 279 279 279 278 278 278 278 278 278 278 278 278 278 278 277 277 277 276 276 276 276 276 276 275 275 275 275 275 275 275 275 275 276 277 279 280
291 291 291 290 291 290 290 290 291 291 290 289 289 290 290 290 291 291 290 290 289 290 290 289 289 289 288 287 287 287 287 287 287 287 286 286 286 285 284 283 282 281 281 280 280 279 278 278 278 277 277 277 277 277 276 276 276 276 276 276 276 276 276 276 275 275 275 275 275 275 275 275 275 274 274 274 274 274 274 274 274 275 275 276 278 280
290 291 290 289 290 290 290 290 290 290 290 290 290 290 290 290 290 290 290 290 289 289 289 288 287 287 286 285 285 286 286 286 285 285 284 283 283 282 281 280 280 279 279 278 278 277 276 276 275 275 275 275 275 275 275 274 274 274 274 274 274 274 274 273 273 273 273 273 273 273 273 273 274 273 273 273 273 273 273 273 274 274 275 276 277 279
289 289 288 289 289 289 289 289 290 290 290 290 290 290 290 290 290 289 289 289 288 287 286 284 284 284 283 283 283 283 283 283 281 281 281 280 280 279 279 279 278 278 277 277 276 275 274 273 273 273 273 273 273 273 273 273 272 272 272 272 272 271 270 270 270 270 270 271 271 271 272 272 272 272 272 272 272 272 272 273 273 274 274 275 277 278
289 288 288 289 289 289 289 289 289 290 290 289 289 289 289 289 289 289 288 286 284 282 281 280 281 281 280 280 280 280 279 279 279 278 278 278 278 277 277 277 276 276 275 274 273 273 272 272 271 271 271 271 271 271 270 270 269 269 269 268 268 267 267 267 267 267 268 268 268 269 269 270 270 270 271 271 271 271 271 272 272 273 274 274 275 276
289 288 288 288 289 289 289 289 289 289 289 289 289 289 289 289 288 287 285 282 281 279 278 278 278 278 278 278 277 277 277 277 277 276 276 276 275 275 275 275 274 273 273 272 271 271 270 270 270 269 269 268 268 268 267 267 266 266 265 265 264 264 264 264 265 265 265 265 266 266 267 268 268 268 269 269 270 270 270 271 271 272 272 273 274 275
288 288 288 288 288 288 288 289 289 289 289 289 289 289 287 285 284 284 282 280 279 277 276 276 276 276 276 276 275 275 275 275 275 274 274 273 273 273 273 272 272 271 271 270 269 268 268 267 267 266 266 266 265 265 264 264 263 263 263 262 262 262 262 262 262 263 263 263 264 265 265 266 266 267 267 268 268 269 269 269 270 271 271 272 272 273
289 289 289 288 289 289 289 289 289 289 288 289 288 286 282 280 280 282 280 278 276 275 274 274 274 274 274 274 274 273 273 273 273 272 272 271 272 271 271 270 269 269 268 268 267 266 266 265 264 264 264 263 263 263 262 262 262 261 261 261 261 261 261 261 261 261 262 262 262 263 263 264 264 265 265 266 267 267 267 268 268 268 269 270 271 271
Wind_Speed
3 6 6 8 11 12 12 13 16 13 7 6 7 10 11 11 12 13 16 9 2 5 11 12 17 17 16 18 18 20 19 18 21 20 17 17 15 14 15 13 9 9 9 8 9 9 9 11 13 14 16 17 18 19 20 21 24 26 28 30 32 32 34 35 32 31 31 28 25 25 28 32 35 39 43 46 49 50 51 53 54 55 55 54 53 52
2 8 9 13 14 7 4 5 9 10 9 10 10 11 11 10 13 13 15 12 0 3 9 10 17 18 16 19 19 20 21 20 18 17 17 19 18 16 13 9 6 6 8 8 8 6 6 9 11 12 13 13 14 16 17 18 20 22 24 26 28 29 31 35 34 33 33 30 27 27 27 26 25 30 38 41 44 48 50 51 53 54 54 54 55 54
5 9 11 15 10 2 2 0 3 8 11 11 9 9 9 8 12 12 11 8 0 2 7 10 14 15 17 21 21 21 20 17 15 13 16 19 19 13 7 7 8 9 10 9 6 5 7 10 10 10 10 11 13 14 15 15 17 17 19 21 23 26 29 33 34 35 36 32 32 31 27 25 21 21 30 34 35 40 45 47 49 51 52 53 55 55
5 6 11 14 7 3 7 3 3 7 8 9 9 8 8 8 10 8 5 2 0 4 9 13 14 13 15 17 16 15 13 13 14 14 17 18 14 10 7 7 9 11 10 9 7 6 8 9 9 10 12 16 18 17 16 15 15 14 16 19 21 24 27 30 33 36 36 32 32 32 29 29 24 21 25 29 34 38 39 41 44 47 49 51 52 54
8 2 2 7 6 8 12 7 6 8 8 9 9 8 10 11 11 10 7 5 7 8 5 10 12 7 6 6 4 2 4 7 9 13 15 10 6 5 6 6 6 6 7 8 8 7 8 7 8 13 18 21 20 17 16 15 14 12 13 15 18 21 23 27 30 33 33 31 30 28 28 27 23 22 22 23 29 31 31 34 37 40 44 46 48 51
9 2 4 4 5 8 10 8 9 10 9 9 8 11 15 14 13 14 11 7 8 5 1 6 10 3 3 4 3 2 2 5 7 12 11 4 2 2 4 4 2 2 3 4 6 7 6 6 9 15 19 21 19 17 16 15 13 11 9 10 12 15 17 21 26 28 30 30 27 23 23 23 20 20 23 24 25 23 26 34 35 37 42 44 46 48
4 2 3 5 6 6 6 9 11 10 9 9 4 8 13 12 12 12 9 5 5 5 1 3 6 6 4 5 6 6 5 8 12 13 8 4 4 3 4 5 4 5 3 2 4 5 6 9 12 15 18 19 18 19 19 18 16 14 12 10 8 9 11 16 21 24 26 25 23 22 24 24 22 21 22 23 21 18 24 32 34 38 41 44 47 48
3 3 2 3 5 6 6 9 8 10 8 6 1 1 5 7 8 6 5 5 5 6 3 4 5 9 8 4 5 5 4 10 15 11 6 4 5 5 4 2 6 6 5 3 2 5 9 12 13 15 16 16 17 21 23 21 19 18 16 15 11 8 7 12 17 21 24 23 21 21 23 22 22 22 18 15 18 20 23 27 31 35 37 41 45 47
3 5 5 6 5 6 8 5 4 11 8 2 3 2 1 1 3 1 3 5 3 6 4 5 6 6 9 2 4 3 5 11 11 4 5 4 4 5 4 6 9 5 5 4 4 9 10 12 14 14 13 14 16 20 24 25 24 22 20 19 16 12 8 8 13 17 22 24 22 20 21 21 21 20 16 13 17 21 23 26 29 31 33 36 40 43
1 2 4 7 6 6 5 0 3 10 6 1 5 3 3 3 2 1 3 4 3 7 5 7 9 6 10 3 5 3 4 7 5 4 2 4 3 3 3 9 7 3 4 6 9 11 11 12 13 12 12 14 15 16 19 24 27 27 26 23 20 16 11 9 11 14 18 22 23 21 20 21 19 18 17 15 16 18 20 23 26 28 30 31 36 41
2 2 1 4 5 3 3 3 0 4 2 2 4 1 0 2 1 1 2 1 3 9 5 11 14 8 8 2 6 4 2 3 2 3 3 4 6 6 6 9 5 4 6 9 11 13 13 15 15 14 15 18 20 22 24 25 29 31 30 27 22 19 16 13 11 11 15 18 22 22 20 20 20 18 16 15 16 17 17 19 22 24 25 28 33 38
3 3 2 2 1 1 3 2 1 3 2 2 2 2 3 2 1 2 1 2 4 8 2 8 12 11 8 3 3 1 1 0 1 3 7 9 9 9 7 9 8 9 10 11 11 11 12 15 18 20 21 21 23 26 27 29 32 33 31 28 23 21 20 17 13 12 12 15 19 22 22 21 21 19 17 17 18 16 17 18 19 19 21 23 28 33
3 5 3 0 1 3 4 3 2 3 2 3 2 2 4 4 2 3 2 3 5 6 1 3 5 9 11 6 3 6 4 0 2 4 7 9 10 10 12 12 11 12 12 11 11 11 11 13 16 19 21 22 24 26 27 28 30 30 29 28 25 23 23 20 16 14 12 13 17 20 22 22 20 19 18 18 18 17 18 19 19 19 19 20 25 31
3 1 4 3 2 5 8 6 3 3 5 7 6 5 5 3 3 5 4 3 6 3 2 1 3 6 10 6 6 10 5 3 2 2 4 6 9 12 14 13 12 13 12 12 12 12 13 14 15 18 20 21 24 26 26 24 24 24 26 26 25 25 26 24 20 16 13 13 15 16 19 20 18 18 19 19 19 18 18 18 20 21 20 22 27 33
5 5 3 5 1 4 11 6 1 2 5 6 4 3 4 4 5 6 4 5 7 3 2 2 3 4 4 1 1 3 3 5 4 4 5 6 9 12 12 11 12 13 13 12 12 14 15 16 18 19 20 21 22 24 24 23 23 23 24 25 25 26 28 27 24 20 16 14 14 15 17 18 19 18 18 18 18 19 19 19 20 21 22 25 30 34
6 7 1 1 2 3 7 2 3 3 3 2 2 2 4 4 5 5 4 4 4 4 2 3 4 4 3 4 3 0 2 2 3 6 9 11 13 12 11 12 12 12 12 12 13 14 15 18 20 19 20 21 21 21 20 21 23 24 24 24 23 24 25 27 27 24 19 17 15 15 16 17 18 19 19 18 18 18 19 19 20 22 24 28 30 31
6 6 3 2 1 1 2 1 1 2 2 3 3 4 2 1 2 5 6 1 0 6 6 5 7 6 6 9 2 6 5 6 7 10 13 13 14 13 12 11 11 11 12 11 12 12 13 16 18 19 19 20 19 18 20 22 23 23 22 22 23 24 26 28 29 28 25 21 19 18 17 16 17 18 20 20 19 19 18 19 22 24 25 28 30 30
6 7 1 3 2 1 2 1 1 2 1 3 3 2 2 2 1 2 4 0 2 7 5 7 13 10 7 7 3 4 6 10 11 11 13 12 13 13 11 10 10 10 10 10 11 10 11 14 16 17 18 18 19 19 21 23 23 22 21 22 22 23 25 25 26 27 27 24 22 21 19 17 17 18 19 20 20 20 18 20 23 25 26 28 30 32
2 6 2 2 2 2 1 2 2 1 1 0 1 1 1 2 2 2 2 1 4 7 5 7 12 10 8 7 5 10 10 12 10 10 12 12 11 10 8 9 10 9 8 9 9 9 9 11 14 16 16 17 18 19 21 22 23 24 24 24 25 25 25 26 27 27 26 26 25 23 21 19 18 17 18 19 20 20 19 21 24 25 27 29 30 32
2 4 3 2 0 0 1 3 3 3 1 1 1 2 2 1 2 2 1 0 3 6 5 6 7 6 4 6 12 12 9 10 7 8 9 9 9 7 6 7 7 7 7 7 8 8 8 10 12 13 13 15 15 16 17 17 19 21 22 24 26 29 31 33 33 31 29 28 27 26 24 21 18 17 17 18 19 19 19 21 23 25 28 30 30 30
2 3 3 0 1 3 3 5 4 4 4 2 1 1 1 1 0 2 2 2 3 6 6 6 6 4 3 7 10 6 10 9 8 8 5 5 6 6 6 5 5 6 6 5 6 6 7 9 11 11 12 13 13 15 16 17 19 22 24 24 25 26 29 30 31 31 30 28 27 27 28 25 22 19 18 17 17 18 19 21 23 26 28 28 29 29
1 2 4 5 5 6 8 6 5 6 5 4 4 5 6 5 3 5 7 5 5 6 5 6 8 6 4 2 2 7 8 7 7 7 5 4 5 5 5 5 4 4 4 5 5 5 6 8 10 10 12 13 14 16 18 19 20 21 22 23 22 22 23 23 24 25 25 26 28 29 30 30 29 26 22 19 18 17 18 20 21 25 27 28 28 30
1 2 5 9 9 10 11 5 2 6 8 9 9 7 8 8 7 9 11 6 6 8 6 7 8 4 1 4 8 8 6 7 6 5 5 4 4 5 6 5 5 4 4 4 4 4 5 7 8 8 10 11 12 14 15 16 16 16 17 19 21 22 22 23 23 21 21 22 25 29 32 32 31 29 27 23 20 18 19 19 19 21 24 26 27 29
0 2 6 8 7 9 11 4 2 1 6 7 6 5 6 8 7 8 8 4 5 7 7 8 6 2 0 3 8 8 8 7 5 4 5 4 4 5 5 6 6 6 5 5 4 4 4 5 6 7 9 10 11 12 12 12 13 13 14 16 18 19 22 24 24 23 23 21 21 25 28 31 31 31 30 27 23 22 21 20 19 18 20 23 24 26
2 3 4 5 5 6 8 5 1 2 3 2 2 1 2 2 4 5 4 3 4 6 9 9 6 3 4 3 2 5 7 7 5 5 4 4 4 3 3 4 3 3 4 4 5 5 6 6 7 8 10 11 12 13 13 14 14 14 15 15 15 16 18 20 21 23 25 24 23 25 26 27 27 29 31 30 28 27 25 22 19 17 17 19 21 23
2 3 4 7 9 9 9 7 2 1 1 1 2 1 1 2 5 6 5 7 5 4 7 8 6 5 5 10 13 6 3 4 4 5 3 3 4 2 1 1 0 0 1 2 3 4 5 5 6 8 9 11 12 13 14 15 16 17 18 18 18 17 17 18 18 18 21 23 23 25 28 28 26 27 29 29 29 29 28 26 23 20 17 17 18 21
1 2 5 9 10 9 10 9 2 1 2 5 5 5 7 8 7 5 5 6 5 6 8 8 10 12 11 15 18 9 3 4 3 3 2 2 1 0 1 1 2 1 2 2 2 3 4 4 6 7 9 10 10 11 12 13 14 15 16 18 19 19 18 19 19 17 17 17 17 20 24 26 27 28 29 29 29 29 29 28 26 24 21 17 16 18
2 4 7 11 12 11 13 13 5 1 4 7 7 10 11 11 10 9 9 9 7 9 8 8 12 15 11 14 17 9 2 1 1 2 1 1 2 2 3 4 4 4 3 2 2 3 3 4 5 5 7 8 8 9 10 10 10 10 11 13 15 15 15 16 16 15 15 15 16 17 20 22 25 27 28 29 30 30 30 30 28 27 25 21 18 17
3 7 9 10 12 11 12 12 7 5 7 7 9 12 13 13 14 14 13 13 12 13 12 11 16 18 15 15 12 3 2 2 1 1 2 2 4 4 5 6 6 5 5 5 4 4 4 4 4 4 5 6 7 8 9 9 10 10 9 10 11 12 12 12 13 13 13 14 15 16 18 21 24 25 25 27 29 30 30 30 30 29 27 25 22 19
2 5 4 4 7 7 8 10 9 8 9 9 11 12 13 16 19 17 16 16 17 18 18 18 22 22 16 8 1 5 4 1 1 2 3 5 6 6 6 7 7 7 6 5 5 5 5 5 5 5 6 6 7 8 9 10 11 12 12 12 13 14 14 14 13 12 12 12 13 15 17 20 24 26 26 26 28 30 30 30 29 29 29 28 26 24
2 3 2 3 4 6 8 10 11 10 10 11 13 14 15 19 20 17 17 17 16 17 18 19 21 18 7 3 5 4 2 1 2 4 5 6 6 7 8 9 9 8 7 6 6 6 6 6 6 7 7 7 7 7 7 8 9 11 12 13 15 17 18 16 14 13 13 12 13 15 16 17 21 26 28 28 28 29 29 29 28 28 28 27 27 26
3 3 3 4 5 6 9 11 10 9 11 13 14 17 20 20 17 16 15 13 14 16 17 17 15 9 1 5 3 2 1 2 5 6 6 6 6 7 8 10 10 9 8 8 7 7 7 7 7 7 8 9 8 8 8 8 9 10 11 12 13 16 17 16 14 14 14 13 14 15 16 17 20 24 26 27 28 29 29 29 28 27 27 27 26 26
3 3 4 5 5 6 11 11 5 5 9 11 11 13 17 18 17 17 15 15 18 18 14 12 7 1 4 5 2 1 3 4 5 6 6 7 7 8 9 10 11 10 9 9 9 8 8 8 8 9 10 11 11 11 10 10 10 11 12 13 14 14 15 14 14 14 15 14 14 15 15 17 20 25 27 27 28 29 29 30 29 29 28 27 27 27
5 6 6 6 7 9 10 5 3 5 11 9 3 4 9 12 13 14 14 15 14 8 3 1 1 4 6 5 2 2 4 5 7 7 7 7 8 9 10 11 11 10 10 10 10 9 8 8 9 10 11 11 12 12 12 11 12 12 12 13 14 14 14 13 13 13 14 15 15 15 16 16 18 22 26 28 29 29 29 30 30 30 29 28 27 27
7 8 7 6 8 9 5 2 5 10 9 3 4 3 4 5 7 10 14 15 8 1 3 4 6 6 6 4 2 4 5 7 8 8 9 10 9 10 11 12 11 11 10 10 10 10 9 10 11 11 12 12 12 13 13 12 12 13 13 13 13 14 14 14 14 14 14 15 15 16 17 18 18 20 23 26 27 27 29 30 30 31 31 30 29 28
9 9 8 6 6 5 3 5 9 6 4 8 10 5 2 2 5 9 11 10 5 5 6 6 7 6 5 3 3 5 6 7 7 7 9 11 10 10 12 12 12 11 11 11 11 11 11 12 13 13 14 14 14 14 14 15 15 16 17 17 17 17 17 16 15 15 15 16 16 16 17 18 19 22 25 27 26 26 28 29 30 32 32 31 32 31
10 9 8 7 6 4 5 9 9 7 8 10 9 4 1 2 4 4 4 3 4 6 7 6 6 5 3 4 6 4 2 3 6 8 9 10 10 11 12 13 13 13 12 13 14 14 14 16 16 17 19 18 17 17 16 17 17 16 18 20 20 20 20 17 15 15 16 17 17 17 18 19 21 24 27 27 26 27 27 27 28 31 30 31 33 33
10 10 8 7 6 4 5 7 8 8 7 4 3 3 1 2 2 1 3 4 3 6 5 4 4 4 4 6 8 4 1 3 7 8 9 10 9 8 10 12 13 14 14 15 16 15 15 18 19 21 22 19 19 21 20 19 18 16 17 19 19 19 19 17 16 17 17 17 18 20 21 23 25 27 28 27 27 28 27 27 28 29 29 30 32 34
7 8 8 7 6 6 7 7 7 8 5 0 1 3 2 1 0 1 6 6 0 4 4 3 3 5 5 6 7 4 2 6 8 7 9 12 9 6 8 10 12 14 16 16 17 17 18 20 22 22 21 18 20 23 21 18 17 16 16 17 18 18 18 18 19 20 19 19 21 23 26 28 28 27 27 27 28 28 28 27 26 25 26 28 28 30
3 4 6 7 7 8 10 8 7 7 4 2 5 5 2 3 2 3 8 5 1 4 5 5 5 6 5 7 6 5 5 7 8 9 12 13 8 6 8 11 12 15 16 17 19 20 19 19 19 19 18 17 18 19 19 18 17 17 17 18 18 18 19 20 21 21 21 23 24 26 29 30 29 29 29 28 29 29 29 27 24 23 25 27 26 26
1 1 4 6 8 10 11 8 6 6 5 7 9 4 3 4 2 6 7 1 3 6 5 6 7 7 7 8 7 5 7 9 11 13 14 11 8 8 11 14 15 17 17 18 19 17 15 15 15 15 17 17 17 19 21 21 20 19 19 18 19 21 22 22 22 21 23 27 29 30 31 31 31 31 31 31 30 30 31 29 26 25 27 27 26 26
2 1 3 5 5 7 8 7 7 6 5 6 5 1 4 4 4 6 3 1 3 6 5 7 9 9 8 9 8 8 10 12 13 13 11 10 10 11 13 14 15 16 16 15 14 12 11 12 14 15 18 19 18 19 21 22 22 22 20 19 22 24 24 23 22 21 24 29 32 33 32 32 32 32 32 32 31 30 32 33 30 28 28 26 25 28
3 2 3 4 4 4 5 6 7 5 2 4 3 2 4 6 4 3 3 3 4 6 5 6 7 7 8 9 9 10 12 13 13 11 10 10 11 12 12 12 12 12 12 13 12 10 11 14 15 16 19 20 19 19 20 21 22 22 21 22 25 26 24 24 25 25 27 30 31 32 33 34 35 34 33 33 32 30 32 35 32 30 28 26 25 26
3 4 5 4 4 3 5 6 5 2 2 4 4 2 4 6 4 5 6 7 7 7 7 7 7 7 7 8 9 11 11 11 11 10 10 11 11 10 10 11 11 11 12 13 13 13 13 15 16 18 21 22 21 21 22 22 22 23 23 24 25 25 23 25 27 28 30 31 31 33 34 34 35 36 35 34 33 31 31 33 32 28 26 26 25 23
6 8 7 5 4 4 6 6 2 0 3 5 5 5 8 9 9 8 7 6 7 7 6 6 8 9 7 7 8 9 9 9 9 9 9 10 10 9 9 10 11 12 13 13 14 14 15 15 18 20 23 25 23 21 20 20 20 22 24 24 24 24 24 26 29 30 32 33 33 34 35 35 36 37 36 35 32 28 27 29 28 26 25 25 24 22
7 6 2 3 4 4 6 8 5 5 9 9 8 9 10 10 10 8 7 7 7 6 4 4 6 7 5 4 5 7 7 7 7 8 8 9 9 9 9 10 12 13 14 14 15 16 17 18 19 20 22 26 26 22 19 19 19 20 24 24 24 24 25 26 28 29 30 31 33 34 34 35 35 35 34 33 30 27 26 26 26 25 25 24 23 22
7 5 3 4 5 4 7 10 9 10 13 12 11 11 10 9 9 7 6 7 5 3 2 1 2 3 3 2 3 6 7 6 6 8 8 8 8 8 8 10 12 13 14 14 15 17 18 18 19 20 22 26 27 24 21 22 21 21 22 23 24 25 28 30 29 28 29 30 31 32 32 31 31 31 30 29 27 26 27 26 25 25 25 24 23 22
4 4 5 6 8 8 10 13 12 12 13 11 10 11 10 10 10 7 3 1 1 2 3 2 1 1 2 2 3 4 6 6 6 8 9 7 7 7 8 10 12 13 14 14 15 16 17 18 19 21 22 25 25 25 24 25 25 24 24 26 28 30 34 35 31 30 31 32 32 33 33 31 31 31 30 30 28 27 27 27 25 25 26 26 24 23
2 2 4 5 7 9 11 14 15 13 13 13 13 12 9 7 6 3 1 2 2 3 2 2 1 1 2 3 3 4 6 7 6 7 9 8 7 8 9 11 14 15 15 16 15 16 17 18 20 21 23 25 25 25 27 28 28 27 26 28 29 31 32 33 32 31 33 32 32 32 32 31 31 31 30 30 30 30 29 29 28 27 28 30 29 27
3 6 5 4 6 9 10 13 13 9 10 12 10 6 2 1 0 1 2 1 1 1 1 1 1 1 2 3 3 4 6 7 6 8 9 8 8 9 12 14 16 16 16 17 18 18 18 18 19 22 25 26 25 25 27 28 28 27 25 26 27 27 28 30 31 31 31 29 28 29 28 29 29 29 29 29 29 29 30 30 30 31 32 34 34 33
8 12 9 7 9 11 12 14 11 8 10 10 3 3 3 1 0 1 2 1 1 1 1 2 3 3 3 3 3 4 6 7 8 9 9 9 10 12 14 14 15 17 18 18 18 19 20 21 21 22 24 26 26 26 27 28 28 28 27 28 28 27 27 28 29 30 30 28 27 28 28 28 29 28 29 29 29 29 30 30 32 33 35 37 38 38
Wind_Direction
185 200 192 211 224 230 223 213 228 248 288 302 284 270 269 274 273 271 274 274 99 281 272 267 276 280 279 279 280 283 282 272 268 272 274 275 279 279 274 278 294 302 302 301 296 298 296 291 287 281 278 278 276 270 263 255 249 246 242 239 237 234 230 226 220 218 217 214 212 214 218 222 224 224 226 228 229 228 229 228 227 227 226 225 224 223
202 217 211 223 232 243 250 230 242 259 277 269 263 270 267 264 269 267 273 283 332 268 271 263 274 280 278 276 274 271 270 266 266 272 278 280 279 276 279 298 331 321 303 300 305 318 309 295 291 287 289 290 285 282 278 267 260 256 248 242 238 235 231 227 223 221 220 217 214 215 220 223 222 223 225 227 229 229 229 229 228 227 226 224 224 223
212 227 227 231 237 307 356 32 248 251 257 260 256 265 265 265 276 268 259 273 281 255 281 279 280 281 274 270 265 261 261 267 273 271 270 272 271 276 306 336 333 314 302 308 334 348 314 298 296 302 315 318 312 308 301 290 281 270 257 249 243 239 235 231 227 225 225 222 221 221 222 224 223 225 229 229 231 231 230 230 229 227 226 225 224 223
222 225 230 236 230 245 256 230 232 258 254 245 243 260 269 264 273 269 243 255 271 260 282 292 286 275 265 260 259 266 269 268 270 261 254 259 269 290 320 315 302 299 304 324 346 336 313 310 313 331 347 347 341 334 327 317 303 288 272 263 255 247 242 237 232 230 228 225 225 225 224 227 225 228 233 234 235 235 233 232 231 229 227 226 224 223
240 158 197 236 209 224 247 238 228 256 259 238 228 245 262 262 262 267 279 318 303 271 271 299 290 268 247 237 225 286 274 258 259 256 253 256 277 298 299 281 269 285 312 329 329 322 319 325 342 356 0 356 351 345 340 335 323 309 293 279 268 257 249 244 239 235 230 225 225 223 224 228 229 232 233 233 234 233 232 233 232 232 230 228 226 225
252 122 120 204 197 210 233 237 228 234 262 260 220 222 247 264 271 274 290 318 304 275 100 337 314 291 167 161 124 109 240 277 268 254 252 256 284 285 294 295 297 321 330 321 312 311 315 337 1 8 8 3 356 352 349 349 351 342 324 303 282 264 253 249 246 240 232 225 222 215 214 218 220 225 226 227 229 224 226 231 232 233 232 230 229 227
254 161 167 208 194 183 206 244 234 214 251 274 225 214 240 259 268 272 289 301 293 295 40 10 310 288 247 212 237 248 255 275 263 256 261 273 283 297 304 318 15 22 359 326 314 319 341 4 11 10 13 13 3 356 359 5 12 12 6 353 320 281 259 255 252 243 234 227 222 216 215 214 213 218 223 224 224 221 227 231 231 233 233 231 230 229
191 171 153 177 179 176 204 243 223 189 228 272 27 198 228 248 262 263 277 263 279 313 306 180 223 273 284 243 226 229 220 247 255 270 301 296 305 317 311 16 62 36 336 304 354 11 14 17 17 12 16 21 14 7 11 16 19 21 22 20 6 336 288 266 260 248 236 230 225 223 223 222 222 223 224 220 218 222 229 230 230 232 233 232 231 229
149 182 177 163 173 200 215 234 169 174 214 281 61 40 142 249 280 250 267 264 289 312 292 178 182 259 281 245 122 150 205 233 245 289 326 321 345 318 323 58 71 43 329 320 32 35 27 22 18 16 19 23 20 17 19 21 24 27 27 26 22 9 342 295 276 258 244 237 230 227 228 229 232 233 232 228 223 224 228 230 231 231 232 233 232 230
86 198 193 173 189 220 213 76 147 180 207 132 115 100 87 91 58 100 269 289 305 287 267 167 170 252 286 249 127 149 228 237 205 120 312 310 13 327 22 63 64 27 344 360 27 33 30 25 18 19 25 26 21 18 19 22 26 29 27 25 23 15 3 332 298 271 254 246 238 233 232 233 237 238 236 235 231 228 227 228 229 229 229 230 230 229
122 90 271 203 218 238 120 75 96 173 143 124 143 105 88 166 116 116 261 322 290 273 233 166 178 220 288 259 146 165 219 259 177 108 323 348 23 0 42 71 57 24 32 36 35 30 24 20 19 19 23 26 23 19 17 19 25 29 27 23 19 15 9 353 327 291 266 254 245 240 238 238 238 237 236 235 235 232 226 223 224 225 225 226 230 230
171 180 219 217 214 116 122 121 61 78 81 171 185 313 292 249 189 174 178 138 246 267 199 157 180 202 245 248 145 161 31 236 228 328 346 8 360 347 37 59 38 31 41 47 45 35 22 15 16 15 15 20 22 21 18 17 22 26 24 21 17 15 10 2 348 319 285 265 256 250 246 245 243 241 240 241 240 234 228 225 223 221 220 222 227 229
206 203 190 172 221 190 189 189 134 113 147 194 198 232 264 280 267 239 229 178 236 261 93 131 182 209 243 249 232 272 294 128 219 298 348 2 338 349 34 38 32 37 38 43 41 32 26 19 16 11 10 15 17 18 16 16 21 22 21 20 17 14 12 7 358 340 310 282 270 260 254 251 248 244 243 245 243 238 235 232 226 221 218 218 222 226
266 217 149 177 238 191 189 202 217 188 174 187 193 194 215 241 262 257 246 242 261 265 67 68 180 232 269 271 247 258 275 66 78 2 356 354 351 19 40 35 33 36 31 35 34 27 25 20 15 10 11 16 16 14 13 14 17 20 21 20 16 16 16 13 5 352 331 304 286 274 264 258 253 248 245 244 244 242 238 234 231 228 224 223 227 231
267 283 177 176 175 167 188 207 309 116 161 189 185 183 219 225 247 258 249 260 281 309 62 137 187 242 285 13 293 285 10 33 31 35 17 21 39 49 50 39 35 32 27 27 27 27 23 17 14 11 10 15 16 13 11 11 15 20 21 18 16 16 16 16 12 2 347 326 306 291 279 269 262 256 251 249 247 245 241 237 235 233 231 233 235 236
242 267 107 121 342 165 187 186 55 104 171 179 114 178 241 232 230 261 280 272 304 320 260 194 227 254 274 295 291 182 81 39 29 46 45 44 52 55 45 35 30 27 27 23 22 23 19 15 14 12 11 13 14 11 10 11 15 19 19 17 17 17 16 17 16 10 359 344 328 311 297 284 274 266 261 258 253 250 246 242 240 239 239 241 241 240
256 265 83 91 297 151 200 176 133 227 206 137 151 203 208 64 221 257 279 257 205 278 251 225 256 258 272 283 232 133 116 99 77 57 58 52 48 50 42 33 26 23 26 24 23 21 15 14 13 11 12 12 9 9 11 15 17 18 16 14 16 17 18 18 17 16 10 358 345 332 316 301 288 277 271 266 261 259 255 250 249 248 247 247 246 244
274 271 175 145 168 96 320 302 156 264 260 146 183 214 98 54 10 250 274 249 206 255 245 240 259 264 274 272 139 78 26 68 68 48 53 49 45 49 41 32 28 24 24 24 25 22 18 16 12 10 10 9 9 11 15 18 18 18 17 16 16 16 16 17 17 18 15 8 359 349 337 320 305 292 283 276 272 267 262 258 257 254 252 252 251 248
318 271 239 136 160 136 197 250 190 216 315 105 245 336 68 222 232 191 221 231 234 250 247 237 252 263 264 263 310 339 10 63 59 42 50 45 45 49 40 37 32 25 23 21 22 19 17 15 11 9 5 4 9 13 16 19 20 21 20 19 21 20 19 19 20 19 17 15 10 2 353 340 324 310 298 289 284 276 269 266 264 260 258 257 255 253
16 270 268 104 100 16 187 221 206 182 133 50 331 337 4 251 249 235 187 165 241 252 257 239 240 249 250 281 311 335 44 75 60 55 57 49 56 56 47 44 34 31 28 19 17 14 12 13 10 8 3 1 6 10 12 14 17 19 19 19 21 23 24 23 22 22 19 17 16 11 7 357 341 328 315 303 295 286 278 274 270 267 265 262 260 257
44 285 281 160 318 300 234 213 212 201 174 148 175 235 271 217 247 280 250 195 225 250 259 254 244 238 257 297 310 1 74 77 69 74 67 58 73 75 68 59 43 42 33 20 19 11 6 8 6 7 5 4 6 10 12 13 16 17 16 16 17 19 22 20 20 21 18 16 16 15 16 13 5 354 339 324 311 298 290 285 280 277 274 269 265 262
211 257 249 251 254 246 239 226 216 222 211 206 222 220 223 221 218 257 249 208 201 228 233 250 257 250 252 299 46 88 93 85 82 84 75 63 64 70 79 77 67 58 39 27 22 10 8 5 1 3 5 7 10 12 14 15 16 17 15 13 13 15 16 14 14 14 13 14 15 17 19 19 18 14 4 350 333 317 304 296 291 288 283 276 271 267
223 216 234 253 255 256 268 271 213 231 237 243 250 239 234 231 223 241 252 245 236 234 228 245 255 262 335 84 99 106 115 112 109 109 102 85 54 50 54 55 60 61 45 35 19 10 8 358 355 359 1 8 12 11 13 13 13 14 11 9 11 13 14 15 14 10 6 8 13 17 20 20 20 18 14 7 352 336 323 312 304 297 291 284 278 272
343 237 251 263 267 276 281 279 96 197 227 233 248 242 239 244 240 247 256 268 261 245 246 256 251 246 357 138 129 131 134 128 123 113 106 104 81 59 46 38 36 30 24 22 14 5 356 352 358 3 5 9 10 8 10 11 11 11 11 10 9 9 12 15 16 13 10 6 5 12 17 18 18 17 16 13 5 355 344 330 318 307 298 293 285 277
280 232 251 277 288 292 280 253 146 101 164 208 266 226 211 258 302 296 273 258 247 222 228 248 253 213 201 211 180 141 133 126 111 95 91 94 90 73 63 56 32 16 14 5 1 356 354 359 1 0 2 3 3 4 4 4 6 7 8 9 8 5 6 10 13 14 14 12 8 9 12 13 14 14 14 12 9 6 1 352 339 323 309 300 292 286
289 255 254 269 267 267 273 273 267 97 105 310 301 248 243 293 302 298 277 259 255 230 228 245 268 263 266 297 301 304 72 81 91 92 82 91 97 101 99 86 339 356 341 330 339 343 346 351 353 356 359 359 360 359 358 359 1 2 1 2 3 2 1 4 6 7 9 11 9 9 11 11 10 10 10 10 8 7 5 2 357 348 332 314 301 293
258 272 256 260 262 263 276 287 311 50 285 272 275 277 280 282 278 270 261 255 267 284 265 255 272 279 285 292 289 294 18 18 30 71 80 94 97 228 251 298 299 274 260 275 308 325 336 341 345 353 355 356 358 354 353 354 354 354 355 355 358 359 358 1 1 358 359 3 2 3 6 8 8 9 9 8 8 7 6 5 3 360 353 339 320 304
207 254 244 249 259 262 272 280 284 288 260 247 254 264 263 262 255 244 246 253 270 280 267 260 273 276 275 277 279 288 355 47 20 23 12 331 310 301 304 307 310 316 313 305 297 307 325 329 335 343 343 346 347 345 348 347 341 340 338 340 347 350 350 353 354 352 352 355 358 360 360 0 3 5 5 6 7 7 6 6 5 3 1 355 344 326
230 259 255 260 271 268 273 279 272 260 264 254 252 259 262 263 257 251 252 254 256 260 263 272 274 270 270 272 274 301 65 130 164 303 288 291 287 281 291 298 302 309 315 314 309 311 314 315 322 324 323 329 332 336 341 338 334 332 324 324 333 335 338 342 343 346 347 349 352 353 354 357 360 0 359 360 1 2 3 4 4 3 3 360 355 346
246 264 275 297 293 286 286 287 284 281 279 272 264 264 268 268 265 265 267 262 256 257 261 266 266 266 273 281 285 84 75 102 235 270 266 268 270 267 268 275 278 279 285 294 298 302 305 310 316 312 310 315 319 326 331 331 331 330 328 330 333 334 339 340 340 342 343 344 346 346 348 353 356 358 357 355 355 356 357 358 359 359 0 360 357 353
285 280 347 13 301 285 281 278 280 285 284 280 279 274 267 265 265 266 267 265 262 262 261 260 261 263 269 78 91 99 94 34 292 285 284 281 274 266 263 267 269 268 278 293 296 296 298 299 302 304 304 304 305 307 309 314 318 317 319 327 331 335 338 337 335 336 335 336 340 343 345 346 350 353 354 353 352 352 352 352 353 353 353 354 355 353
292 284 319 318 290 278 279 280 286 298 294 283 276 269 263 260 260 257 256 257 259 264 265 263 263 266 155 105 104 148 177 306 294 285 288 286 276 266 265 271 273 273 285 299 301 297 293 293 295 299 303 304 304 302 300 303 308 308 311 317 321 327 331 331 328 328 328 328 332 338 340 340 342 345 347 348 348 347 347 348 347 347 347 347 348 348
263 271 287 289 282 273 277 285 320 340 297 273 257 257 259 258 259 259 257 257 256 260 266 268 269 262 123 130 124 184 221 261 279 279 285 289 283 272 268 272 275 278 284 292 295 292 287 286 286 286 292 300 302 303 304 305 305 305 307 311 314 318 321 321 321 322 322 322 325 331 334 334 336 338 340 341 341 341 342 342 342 342 341 341 341 341
246 257 265 267 270 274 278 307 14 281 264 261 261 272 270 270 272 270 266 264 262 262 272 273 137 128 145 158 174 253 240 249 262 271 279 286 287 283 278 276 274 272 274 279 285 286 281 278 276 273 276 282 288 294 298 298 297 297 298 302 306 311 312 312 313 316 317 317 319 323 326 327 328 330 332 334 335 336 336 336 336 336 336 336 335 335
248 253 259 257 260 272 291 333 277 256 250 290 338 297 271 283 284 277 272 269 264 163 128 146 152 161 170 177 236 279 277 273 267 265 270 274 277 280 280 279 275 267 266 273 279 282 282 280 279 277 276 278 284 291 293 291 292 295 296 297 300 304 307 308 309 311 313 313 313 316 320 322 321 322 324 327 329 329 329 329 329 331 332 331 329 329
245 253 257 252 248 262 262 233 244 263 325 317 296 271 214 244 252 261 270 264 227 184 200 203 184 175 176 202 252 267 277 287 282 264 257 259 262 267 270 271 269 263 260 266 273 276 278 280 281 282 281 281 284 288 290 292 296 298 300 302 303 305 308 309 309 310 312 310 308 310 313 316 317 318 320 322 322 322 322 323 323 324 326 326 324 324
234 244 247 248 244 243 242 239 252 295 314 296 284 270 200 249 251 259 285 274 188 192 212 206 191 190 207 266 275 265 256 297 294 276 263 255 251 257 263 262 260 258 257 259 264 266 269 273 276 278 279 279 280 281 284 289 293 295 296 300 302 303 305 305 303 304 306 304 304 305 307 310 312 313 315 316 316 315 316 316 316 317 319 320 320 320
219 226 225 235 244 234 242 252 260 274 277 280 295 280 256 310 317 298 291 281 194 187 198 184 189 225 266 281 277 265 198 265 277 282 288 282 265 261 268 262 255 254 254 256 261 264 266 268 271 275 278 277 277 279 282 287 289 289 289 292 296 299 300 299 298 299 300 299 300 301 303 306 307 308 310 310 309 309 310 309 309 310 312 314 314 314
206 221 220 231 247 238 240 249 247 253 263 250 271 260 200 170 315 259 282 296 272 171 189 177 215 252 257 261 262 247 231 266 273 286 299 295 287 282 283 278 267 262 260 262 266 268 270 272 274 276 277 274 274 280 287 291 291 288 285 289 293 294 292 293 294 295 295 295 296 297 299 302 303 303 304 303 303 303 304 304 303 303 305 307 307 306
169 211 212 220 236 236 240 248 248 255 274 261 259 265 196 139 143 251 275 293 131 198 204 188 221 247 244 253 259 237 234 264 285 298 300 296 295 297 291 287 283 278 276 276 278 281 286 289 288 287 283 280 283 294 304 306 302 294 290 292 293 288 286 288 291 292 294 294 294 294 296 297 297 298 298 298 298 299 300 299 297 297 299 301 299 297
147 206 214 218 231 235 238 247 253 258 262 258 263 265 143 131 186 253 265 276 156 217 211 191 223 246 250 257 264 252 253 270 284 291 294 295 297 299 293 288 285 283 283 284 290 301 309 306 302 300 297 298 304 311 313 313 308 299 296 295 290 285 286 289 290 291 292 293 294 294 294 293 293 293 294 294 295 296 296 295 294 294 296 296 294 292
165 175 227 222 227 234 238 248 261 268 253 240 249 152 140 188 247 259 264 126 188 226 220 207 228 245 252 257 262 265 273 281 283 284 287 288 290 293 292 290 290 292 297 305 316 330 330 316 310 307 303 304 308 309 311 311 305 299 297 292 286 287 291 292 292 292 292 292 293 293 292 291 291 291 291 291 291 291 292 292 292 293 293 290 286 285
180 182 233 216 201 227 244 241 250 270 250 184 173 131 174 217 261 312 314 293 265 268 270 256 254 257 257 262 268 272 278 282 281 280 280 282 288 292 295 302 309 314 320 325 330 339 333 319 311 306 304 305 305 306 311 311 303 298 294 288 288 292 295 294 296 296 293 292 291 290 290 290 290 290 289 288 288 288 287 289 290 291 290 286 282 280
191 203 241 232 185 204 245 239 228 252 233 176 172 204 226 234 270 308 301 296 297 295 291 290 288 280 272 274 277 278 281 280 278 282 286 290 296 301 308 320 326 325 325 323 322 325 324 316 309 305 304 304 304 306 311 310 303 298 293 291 295 299 299 298 300 298 293 291 290 288 288 288 287 288 287 286 287 286 284 285 287 288 286 284 281 276
204 209 236 254 221 206 247 260 244 190 240 213 204 238 252 258 272 284 286 284 284 284 288 292 290 287 289 287 281 277 277 279 285 293 298 299 303 309 316 320 318 316 316 316 317 320 320 315 310 307 304 303 305 307 310 309 305 299 296 299 304 306 303 302 301 297 292 291 289 287 287 287 285 285 284 283 284 282 280 283 285 283 281 280 277 271
230 218 226 274 256 244 259 260 247 249 260 255 248 252 257 263 274 281 278 273 276 283 293 292 288 295 308 306 286 278 280 290 300 300 299 299 301 308 314 312 311 313 314 314 318 322 323 318 312 309 306 305 308 311 311 310 309 304 303 307 310 309 307 306 303 298 294 291 289 288 288 286 284 283 283 282 280 277 275 276 278 277 276 275 271 268
243 210 181 234 256 266 263 255 243 244 254 259 264 268 266 262 265 269 271 279 293 319 355 356 312 310 323 320 292 283 290 307 310 298 296 297 297 305 312 308 307 312 313 315 319 322 324 320 313 312 309 306 309 313 313 312 313 311 311 313 314 313 312 310 307 302 297 294 293 291 289 286 285 284 283 281 278 275 272 270 269 269 269 267 267 267
228 174 181 222 237 240 251 259 260 257 256 259 262 266 266 265 265 268 278 315 33 74 77 64 27 327 321 315 302 295 298 303 301 296 296 299 303 309 309 305 307 311 312 314 317 319 320 316 310 309 306 304 308 313 312 311 312 312 312 311 310 308 307 304 301 298 294 292 291 289 286 284 284 283 282 280 276 273 270 267 265 263 261 260 261 263
150 156 180 205 233 241 248 258 262 263 265 262 253 251 257 270 273 275 74 77 81 92 94 85 59 323 303 300 305 305 295 293 295 296 297 300 306 307 305 307 309 310 311 313 315 316 316 312 309 308 305 304 307 309 307 306 307 308 310 309 307 306 304 300 298 296 292 290 289 286 284 283 282 280 279 278 275 272 268 264 262 261 262 262 260 259
159 230 216 189 238 249 245 245 247 252 267 269 258 241 239 307 326 157 143 112 77 65 33 329 294 253 255 275 296 299 290 290 300 302 297 298 303 305 306 310 310 308 311 315 315 313 311 308 307 306 303 301 304 304 302 303 305 308 310 309 308 306 302 299 299 296 293 291 290 288 287 287 284 282 281 279 278 277 274 269 265 263 263 265 264 262
206 233 226 215 240 248 247 246 240 240 261 271 270 116 108 63 49 188 176 149 126 89 3 319 303 292 271 268 281 289 288 295 305 306 300 297 302 304 305 307 309 309 311 313 313 312 310 309 307 304 300 300 301 301 300 302 304 306 306 304 302 300 297 296 296 294 293 293 291 290 290 289 287 286 284 282 280 280 280 279 275 270 265 265 266 267